GW7092 Weather Reports


time (UTC)temp
C
wind
direction
speed
KPH
gust
KPH
rain 1hr
cm
rain 24hr
cm
rain mn
cm
humidity
%
barometer
mb
20260509000600 20 290 3.2 9.7 0.00 0.00 0.00 35 1044.2
20260509000056 20 225 3.2 6.4 0.00 0.00 0.00 35 1044.3
20260508235554 20 251 4.8 4.8 0.00 0.00 0.00 38 1044.1
20260508235050 20 239 4.8 4.8 0.00 0.00 0.00 37 1044.1
20260508234547 20 260 8.0 9.7 0.00 0.00 0.00 33 1044.3
20260508234044 20 265 4.8 6.4 0.00 0.00 0.00 33 1044.5
20260508233543 21 254 3.2 4.8 0.00 0.00 0.00 35 1044.4
20260508233040 21 210 4.8 9.7 0.00 0.00 0.00 35 1044.4
20260508232537 21 250 8.0 9.7 0.00 0.00 0.00 33 1044.6
20260508232034 21 258 14.5 14.5 0.00 0.00 0.00 31 1044.6
20260508231532 21 288 8.0 14.5 0.00 0.00 0.00 32 1044.5
20260508231029 20 266 6.4 14.5 0.00 0.00 0.00 33 1044.4
20260508230525 20 231 8.0 12.9 0.00 0.00 0.00 33 1044.7
20260508230022 21 280 8.0 14.5 0.00 0.00 0.00 32 1044.6
20260508225519 21 220 6.4 16.1 0.00 0.00 0.00 34 1044.5
20260508225016 21 289 14.5 16.1 0.00 0.00 0.00 31 1044.5
20260508224514 21 284 9.7 16.1 0.00 0.00 0.00 33 1044.8
20260508224011 21 232 6.4 11.3 0.00 0.00 0.00 31 1044.5
20260508223509 21 251 8.0 20.9 0.00 0.00 0.00 32 1044.5
20260508223006 21 298 9.7 14.5 0.00 0.00 0.00 33 1044.7
20260508222503 21 318 14.5 16.1 0.00 0.00 0.00 34 1044.6
20260508221959 21 247 8.0 14.5 0.00 0.00 0.00 32 1044.4
20260508221456 21 302 8.0 17.7 0.00 0.00 0.00 31 1044.7
20260508220952 21 216 9.7 14.5 0.00 0.00 0.00 33 1044.5
20260508220448 21 237 4.8 9.7 0.00 0.00 0.00 36 1044.5
20260508215944 21 227 11.3 16.1 0.00 0.00 0.00 32 1044.5
20260508215442 21 254 12.9 17.7 0.00 0.00 0.00 31 1044.4
20260508214938 21 238 8.0 14.5 0.00 0.00 0.00 33 1044.3
20260508214437 21 306 8.0 12.9 0.00 0.00 0.00 34 1044.5
20260508213932 21 287 9.7 16.1 0.00 0.00 0.00 30 1044.4
20260508213430 21 239 8.0 14.5 0.00 0.00 0.00 30 1044.1
20260508212925 21 252 16.1 20.9 0.00 0.00 0.00 31 1044.2
20260508212422 21 280 11.3 16.1 0.00 0.00 0.00 30 1044.0
20260508211918 21 301 8.0 22.5 0.00 0.00 0.00 31 1044.4
20260508211414 21 205 3.2 12.9 0.00 0.00 0.00 30 1044.5
20260508210911 21 250 12.9 16.1 0.00 0.00 0.00 31 1044.7
20260508210408 21 326 12.9 17.7 0.00 0.00 0.00 31 1044.6
20260508205904 21 305 6.4 14.5 0.00 0.00 0.00 35 1044.7
20260508205401 21 263 9.7 12.9 0.00 0.00 0.00 31 1044.8
20260508204857 21 239 6.4 11.3 0.00 0.00 0.00 35 1045.0
20260508204354 21 240 8.0 16.1 0.00 0.00 0.00 30 1044.9
20260508203850 21 284 8.0 12.9 0.00 0.00 0.00 33 1045.1
20260508203346 21 273 4.8 12.9 0.00 0.00 0.00 38 1045.3
20260508202842 21 214 9.7 14.5 0.00 0.00 0.00 32 1045.2
20260508202340 21 213 11.3 22.5 0.00 0.00 0.00 33 1045.3
20260508201837 21 249 12.9 16.1 0.00 0.00 0.00 36 1045.5
20260508201334 21 250 16.1 17.7 0.00 0.00 0.00 32 1045.6
20260508200830 21 229 9.7 24.1 0.00 0.00 0.00 34 1045.7
20260508200327 21 241 12.9 22.5 0.00 0.00 0.00 32 1045.9
20260508195822 21 250 3.2 6.4 0.00 0.00 0.00 40 1045.5
20260508195320 21 193 9.7 16.1 0.00 0.00 0.00 36 1045.4
20260508194816 21 216 16.1 22.5 0.00 0.00 0.00 34 1045.5
20260508194313 21 208 14.5 17.7 0.00 0.00 0.00 34 1045.6
20260508193810 21 218 4.8 17.7 0.00 0.00 0.00 31 1045.4
20260508193307 21 264 16.1 20.9 0.00 0.00 0.00 33 1045.7
20260508192803 21 256 6.4 20.9 0.00 0.00 0.00 36 1045.8
20260508192300 21 315 12.9 16.1 0.00 0.00 0.00 34 1045.7
20260508191757 20 184 14.5 20.9 0.00 0.00 0.00 33 1045.9
20260508191254 20 253 11.3 17.7 0.00 0.00 0.00 34 1045.9
20260508190752 20 244 9.7 20.9 0.00 0.00 0.00 37 1045.8
20260508190247 20 219 16.1 24.1 0.00 0.00 0.00 35 1046.0
20260508185744 20 244 4.8 20.9 0.00 0.00 0.00 35 1046.2
20260508185242 21 249 20.9 24.1 0.00 0.00 0.00 33 1046.1
20260508184738 20 225 6.4 12.9 0.00 0.00 0.00 36 1046.1
20260508184236 20 176 9.7 16.1 0.00 0.00 0.00 37 1046.3
20260508183732 21 281 12.9 17.7 0.00 0.00 0.00 33 1046.2
20260508183228 20 190 12.9 14.5 0.00 0.00 0.00 41 1046.5
20260508182725 20 242 14.5 17.7 0.00 0.00 0.00 36 1046.5
20260508182222 20 225 9.7 22.5 0.00 0.00 0.00 37 1046.5
20260508181718 20 259 8.0 16.1 0.00 0.00 0.00 37 1046.9
20260508181215 20 199 11.3 14.5 0.00 0.00 0.00 39 1047.0
20260508180711 20 247 9.7 20.9 0.00 0.00 0.00 37 1047.2
20260508180208 20 262 12.9 27.4 0.00 0.00 0.00 34 1047.2
20260508175705 20 192 4.8 14.5 0.00 0.00 0.00 35 1047.2
20260508175201 20 233 8.0 17.7 0.00 0.00 0.00 36 1047.4
20260508174659 20 247 8.0 11.3 0.00 0.00 0.00 41 1047.5
20260508174155 20 287 9.7 12.9 0.00 0.00 0.00 35 1047.7
20260508173652 19 303 17.7 22.5 0.00 0.00 0.00 35 1047.7
20260508173148 19 190 9.7 14.5 0.00 0.00 0.00 36 1047.9
20260508172646 20 216 9.7 17.7 0.00 0.00 0.00 34 1047.9
20260508172143 19 263 6.4 14.5 0.00 0.00 0.00 35 1048.0
20260508171639 19 255 8.0 11.3 0.00 0.00 0.00 39 1047.9
20260508171136 20 253 4.8 14.5 0.00 0.00 0.00 35 1048.2
20260508170633 19 235 3.2 4.8 0.00 0.00 0.00 42 1048.1
20260508170130 19 260 8.0 12.9 0.00 0.00 0.00 37 1048.5
20260508165627 19 235 1.6 9.7 0.00 0.00 0.00 38 1048.6
20260508165124 19 187 8.0 12.9 0.00 0.00 0.00 38 1048.6
20260508164620 19 257 6.4 11.3 0.00 0.00 0.00 38 1048.7
20260508164118 19 297 9.7 16.1 0.00 0.00 0.00 42 1048.7
20260508163615 18 229 6.4 12.9 0.00 0.00 0.00 38 1049.1
20260508163112 18 311 12.9 14.5 0.00 0.00 0.00 41 1049.0
20260508162608 18 293 6.4 12.9 0.00 0.00 0.00 37 1049.1
20260508162106 18 302 9.7 12.9 0.00 0.00 0.00 41 1049.0
20260508161602 18 239 6.4 12.9 0.00 0.00 0.00 41 1049.1
20260508161100 18 271 11.3 20.9 0.00 0.00 0.00 38 1049.3
20260508160558 18 266 4.8 16.1 0.00 0.00 0.00 38 1049.5
20260508160054 18 232 8.0 11.3 0.00 0.00 0.00 41 1049.4
20260508155552 18 222 6.4 14.5 0.00 0.00 0.00 43 1049.3
20260508155049 18 282 8.0 14.5 0.00 0.00 0.00 41 1049.6
20260508154546 18 320 3.2 11.3 0.00 0.00 0.00 40 1049.5
20260508154043 18 268 6.4 9.7 0.00 0.00 0.00 39 1049.6
20260508153539 17 231 4.8 12.9 0.00 0.00 0.00 46 1049.7
20260508153036 17 263 9.7 14.5 0.00 0.00 0.00 39 1049.7
20260508152533 17 259 6.4 14.5 0.00 0.00 0.00 40 1049.7
20260508152028 17 304 9.7 9.7 0.00 0.00 0.00 45 1049.7
20260508151525 17 262 8.0 20.9 0.00 0.00 0.00 44 1050.0
20260508151022 17 295 4.8 11.3 0.00 0.00 0.00 41 1049.8
20260508150519 17 224 6.4 16.1 0.00 0.00 0.00 42 1049.9
20260508150015 17 188 6.4 11.3 0.00 0.00 0.00 44 1049.9
20260508145512 17 251 8.0 11.3 0.00 0.00 0.00 45 1049.9
20260508145008 17 201 3.2 9.7 0.00 0.00 0.00 44 1049.9
20260508144506 16 305 8.0 14.5 0.00 0.00 0.00 41 1050.0
20260508144003 16 227 11.3 12.9 0.00 0.00 0.00 43 1049.9
20260508143500 17 256 6.4 9.7 0.00 0.00 0.00 46 1050.0
20260508142956 16 221 4.8 6.4 0.00 0.00 0.00 47 1050.0
20260508142454 16 281 3.2 11.3 0.00 0.00 0.00 48 1049.9
20260508141950 16 233 6.4 9.7 0.00 0.00 0.00 50 1049.9
20260508141447 15 229 4.8 9.7 0.00 0.00 0.00 51 1049.9
20260508140945 15 295 8.0 14.5 0.00 0.00 0.00 49 1049.9
20260508140442 15 255 6.4 11.3 0.00 0.00 0.00 50 1049.9
20260508135937 15 249 8.0 11.3 0.00 0.00 0.00 53 1050.0
20260508135434 15 289 3.2 6.4 0.00 0.00 0.00 57 1049.9
20260508134930 15 299 6.4 9.7 0.00 0.00 0.00 55 1050.2
20260508134427 14 215 4.8 9.7 0.00 0.00 0.00 56 1050.1
20260508133924 14 307 6.4 9.7 0.00 0.00 0.00 54 1050.1
20260508133421 14 215 9.7 9.7 0.00 0.00 0.00 55 1050.1
20260508132918 13 265 3.2 6.4 0.00 0.00 0.00 61 1050.0
20260508132416 13 312 3.2 4.8 0.00 0.00 0.00 60 1050.0
20260508131913 13 315 4.8 9.7 0.00 0.00 0.00 60 1050.1
20260508131408 12 255 3.2 9.7 0.00 0.00 0.00 58 1050.0
20260508130905 12 276 4.8 4.8 0.00 0.00 0.00 64 1050.0
20260508130402 10 244 4.8 6.4 0.00 0.00 0.00 69 1050.0
20260508125858 9 121 0.0 1.6 0.00 0.00 0.00 93 1050.1
20260508125354 8 120 0.0 1.6 0.00 0.00 0.00 97 1050.1
20260508124852 8 121 0.0 0.0 0.00 0.00 0.00 98 1050.0
20260508124349 7 120 0.0 1.6 0.00 0.00 0.00 98 1049.9
20260508123847 6 120 0.0 0.0 0.00 0.00 0.00 98 1050.1
20260508123345 6 120 0.0 1.6 0.00 0.00 0.00 98 1050.1
20260508122841 5 121 0.0 0.0 0.00 0.00 0.00 98 1050.1
20260508122338 5 121 0.0 0.0 0.00 0.00 0.00 98 1050.1
20260508121835 4 121 0.0 0.0 0.00 0.00 0.00 98 1050.1
20260508121334 4 121 0.0 0.0 0.00 0.00 0.00 98 1050.2
20260508120831 3 121 0.0 0.0 0.00 0.00 0.00 98 1050.1
20260508120329 3 121 0.0 0.0 0.00 0.00 0.00 98 1050.0
20260508115826 2 121 0.0 0.0 0.00 0.00 0.00 98 1050.1
20260508115324 2 121 0.0 0.0 0.00 0.00 0.00 98 1050.1
20260508114820 2 121 0.0 0.0 0.00 0.00 0.00 98 1050.1
20260508114317 2 121 0.0 0.0 0.00 0.00 0.00 98 1050.0
20260508113813 2 121 0.0 0.0 0.00 0.00 0.00 98 1049.9
20260508113312 2 121 0.0 0.0 0.00 0.00 0.00 97 1049.8
20260508112808 1 121 0.0 0.0 0.00 0.00 0.00 97 1049.8
20260508112307 1 121 0.0 0.0 0.00 0.00 0.00 97 1049.6
20260508111801 1 121 0.0 0.0 0.00 0.00 0.00 97 1049.6
20260508111259 1 121 0.0 0.0 0.00 0.00 0.00 97 1049.6
20260508110756 1 121 0.0 0.0 0.00 0.00 0.00 97 1049.6
20260508110253 1 121 0.0 0.0 0.00 0.00 0.00 97 1049.5
20260508105753 1 121 0.0 0.0 0.00 0.00 0.00 97 1049.5
20260508105250 1 121 0.0 0.0 0.00 0.00 0.00 97 1049.4
20260508104747 1 121 0.0 0.0 0.00 0.00 0.00 97 1049.4
20260508104244 1 121 0.0 0.0 0.00 0.00 0.00 97 1049.4
20260508103742 1 121 0.0 0.0 0.00 0.00 0.00 97 1049.5
20260508103238 1 121 0.0 0.0 0.00 0.00 0.00 97 1049.2
20260508102735 1 121 0.0 0.0 0.00 0.00 0.00 97 1049.3
20260508102233 1 121 0.0 0.0 0.00 0.00 0.00 97 1049.2
20260508101730 1 121 0.0 0.0 0.00 0.00 0.00 97 1049.2
20260508101228 1 121 0.0 0.0 0.00 0.00 0.00 97 1049.1
20260508100726 1 121 0.0 0.0 0.00 0.00 0.00 97 1049.1
20260508100224 1 121 0.0 0.0 0.00 0.00 0.00 97 1049.2
20260508095719 1 121 0.0 0.0 0.00 0.00 0.00 97 1049.2
20260508095217 1 121 0.0 0.0 0.00 0.00 0.00 97 1049.1
20260508094713 1 121 0.0 0.0 0.00 0.00 0.00 97 1049.2
20260508094210 1 121 0.0 0.0 0.00 0.00 0.00 97 1049.2
20260508093707 1 121 0.0 0.0 0.00 0.00 0.00 97 1049.2
20260508093206 1 121 0.0 0.0 0.00 0.00 0.00 97 1049.3
20260508092702 1 121 0.0 0.0 0.00 0.00 0.00 97 1049.2
20260508092201 1 121 0.0 0.0 0.00 0.00 0.00 97 1049.2
20260508091658 1 121 0.0 0.0 0.00 0.00 0.00 97 1049.1
20260508091155 1 121 1.6 1.6 0.00 0.00 0.00 97 1049.3
20260508090652 1 121 0.0 0.0 0.00 0.00 0.00 97 1049.4
20260508090150 1 120 0.0 0.0 0.00 0.00 0.00 97 1049.3
20260508085645 1 121 0.0 0.0 0.00 0.00 0.00 97 1049.3
20260508085143 1 121 0.0 0.0 0.00 0.00 0.00 97 1049.3
20260508084639 1 120 0.0 0.0 0.00 0.00 0.00 97 1049.3
20260508084136 1 120 0.0 0.0 0.00 0.00 0.00 97 1049.4
20260508083634 1 120 0.0 0.0 0.00 0.00 0.00 97 1049.3
20260508083131 1 120 0.0 0.0 0.00 0.00 0.00 97 1049.2
20260508082626 1 120 0.0 0.0 0.00 0.00 0.00 97 1049.3
20260508082124 1 120 0.0 0.0 0.00 0.00 0.00 97 1049.4
20260508081621 1 120 0.0 0.0 0.00 0.00 0.00 97 1049.3
20260508081117 1 120 0.0 0.0 0.00 0.00 0.00 97 1049.4
20260508080615 1 120 0.0 0.0 0.00 0.00 0.00 97 1049.1
20260508080113 1 121 0.0 0.0 0.00 0.00 0.00 97 1049.2
20260508075609 1 121 0.0 0.0 0.00 0.00 0.00 96 1049.2
20260508075106 1 121 0.0 0.0 0.00 0.00 0.00 96 1049.3
20260508074604 1 121 0.0 0.0 0.00 0.00 0.00 96 1049.2
20260508074101 2 121 0.0 0.0 0.00 0.00 0.00 96 1049.5
20260508073558 2 121 0.0 0.0 0.00 0.00 0.00 96 1049.1
20260508073056 2 121 0.0 1.6 0.00 0.00 0.00 96 1049.3
20260508072551 2 121 0.0 0.0 0.00 0.00 0.00 97 1049.1
20260508072048 2 119 0.0 0.0 0.00 0.00 0.00 96 1049.3
20260508071546 2 119 0.0 0.0 0.00 0.00 0.00 96 1049.4
20260508071044 2 119 0.0 0.0 0.00 0.00 0.00 96 1049.3
20260508070541 2 119 0.0 0.0 0.00 0.00 0.00 96 1049.2
20260508070040 2 119 0.0 0.0 0.00 0.00 0.00 96 1049.3
20260508065537 2 119 0.0 1.6 0.00 0.00 0.00 96 1049.4
20260508065035 2 120 1.6 1.6 0.00 0.00 0.00 96 1049.3
20260508064532 2 120 0.0 0.0 0.00 0.00 0.00 96 1049.4
20260508064030 2 120 0.0 0.0 0.00 0.00 0.00 96 1049.5
20260508063527 2 120 0.0 0.0 0.00 0.00 0.00 96 1049.4
20260508063025 2 120 0.0 0.0 0.00 0.00 0.00 96 1049.3
20260508062522 2 120 0.0 0.0 0.00 0.00 0.00 96 1049.4
20260508062018 2 120 0.0 0.0 0.00 0.00 0.00 96 1049.4
20260508061517 2 121 0.0 0.0 0.00 0.00 0.00 96 1049.3
20260508061013 3 120 0.0 0.0 0.00 0.00 0.00 96 1049.4
20260508060510 3 121 0.0 0.0 0.00 0.00 0.00 96 1049.5
20260508060008 3 121 0.0 0.0 0.00 0.00 0.00 96 1049.5
20260508055503 3 164 0.0 1.6 0.00 0.00 0.00 96 1049.7
20260508055000 3 165 0.0 1.6 0.00 0.00 0.00 96 1049.4
20260508054457 3 165 0.0 0.0 0.00 0.00 0.00 96 1049.5
20260508053953 3 164 0.0 1.6 0.00 0.00 0.00 96 1049.8
20260508053450 3 164 0.0 0.0 0.00 0.00 0.00 96 1049.6
20260508052948 3 164 0.0 0.0 0.00 0.00 0.00 96 1049.6
20260508052446 3 164 0.0 0.0 0.00 0.00 0.00 96 1049.5
20260508051942 3 164 0.0 0.0 0.00 0.00 0.00 95 1049.6
20260508051438 3 164 0.0 0.0 0.00 0.00 0.00 95 1049.5
20260508050934 3 165 0.0 0.0 0.00 0.00 0.00 95 1049.7
20260508050431 3 164 0.0 0.0 0.00 0.00 0.00 95 1049.8
20260508045927 3 165 0.0 0.0 0.00 0.00 0.00 95 1049.5
20260508045425 3 165 0.0 0.0 0.00 0.00 0.00 95 1049.5
20260508044922 3 165 0.0 0.0 0.00 0.00 0.00 95 1049.6
20260508044419 3 165 0.0 0.0 0.00 0.00 0.00 95 1049.6
20260508043914 3 164 0.0 0.0 0.00 0.00 0.00 95 1049.5
20260508043412 3 165 0.0 0.0 0.00 0.00 0.00 95 1049.4
20260508042908 3 164 0.0 0.0 0.00 0.00 0.00 95 1049.6
20260508042406 3 165 0.0 0.0 0.00 0.00 0.00 95 1049.5
20260508041903 3 165 0.0 0.0 0.00 0.00 0.00 95 1049.5
20260508041359 4 165 0.0 0.0 0.00 0.00 0.00 95 1049.4
20260508040855 4 164 0.0 0.0 0.00 0.00 0.00 95 1049.3
20260508040353 4 164 0.0 0.0 0.00 0.00 0.00 95 1049.2
20260508035851 4 165 0.0 0.0 0.00 0.00 0.00 94 1049.5
20260508035348 4 165 0.0 0.0 0.00 0.00 0.00 95 1049.5
20260508034844 4 164 0.0 0.0 0.00 0.00 0.00 94 1049.4
20260508034342 4 165 0.0 0.0 0.00 0.00 0.00 94 1049.4
20260508033838 4 165 0.0 0.0 0.00 0.00 0.00 94 1049.3
20260508033336 4 165 0.0 0.0 0.00 0.00 0.00 94 1049.6
20260508032834 4 165 0.0 0.0 0.00 0.00 0.00 94 1049.5
20260508032331 5 165 0.0 0.0 0.00 0.00 0.00 94 1049.4
20260508031827 5 165 0.0 0.0 0.00 0.00 0.00 94 1049.3
20260508031324 5 165 0.0 0.0 0.00 0.00 0.00 93 1049.6
20260508030821 5 165 0.0 0.0 0.00 0.00 0.00 93 1049.5
20260508030318 5 165 0.0 0.0 0.00 0.00 0.00 93 1049.5
20260508025814 5 165 0.0 0.0 0.00 0.00 0.00 93 1049.5
20260508025312 5 166 0.0 0.0 0.00 0.00 0.00 93 1049.3
20260508024808 5 165 0.0 0.0 0.00 0.00 0.00 92 1049.5
20260508024305 5 166 0.0 0.0 0.00 0.00 0.00 92 1049.3
20260508023802 5 166 0.0 0.0 0.00 0.00 0.00 92 1049.4
20260508023259 5 166 0.0 0.0 0.00 0.00 0.00 92 1049.3
20260508022754 5 166 0.0 0.0 0.00 0.00 0.00 91 1049.3
20260508022251 5 166 0.0 0.0 0.00 0.00 0.00 91 1049.3
20260508021748 6 165 0.0 0.0 0.00 0.00 0.00 90 1049.4
20260508021243 6 166 0.0 0.0 0.00 0.00 0.00 89 1049.2
20260508020741 6 166 0.0 0.0 0.00 0.00 0.00 88 1049.3
20260508020238 6 165 0.0 0.0 0.00 0.00 0.00 88 1049.0
20260508015735 6 165 0.0 0.0 0.00 0.00 0.00 87 1049.1
20260508015232 7 166 0.0 0.0 0.00 0.00 0.00 85 1048.9
20260508014729 7 165 0.0 0.0 0.00 0.00 0.00 85 1048.9
20260508014226 7 166 0.0 0.0 0.00 0.00 0.00 84 1048.9
20260508013721 7 166 1.6 1.6 0.00 0.00 0.00 83 1048.6
20260508013218 7 166 0.0 0.0 0.00 0.00 0.00 79 1048.6
20260508012716 7 166 1.6 1.6 0.00 0.00 0.00 76 1048.6
20260508012213 8 166 1.6 1.6 0.00 0.00 0.00 76 1048.5
20260508011711 8 166 1.6 1.6 0.00 0.00 0.00 79 1048.6
20260508011208 8 166 0.0 0.0 0.00 0.00 0.00 73 1048.4
20260508010705 9 166 1.6 1.6 0.00 0.00 0.00 71 1048.5
20260508010203 9 166 1.6 1.6 0.00 0.00 0.00 71 1048.2
20260508005700 10 166 1.6 1.6 0.00 0.00 0.00 69 1048.1
20260508005156 10 165 1.6 1.6 0.00 0.00 0.00 68 1048.1
20260508004652 10 165 1.6 1.6 0.00 0.00 0.00 66 1048.2
20260508004148 10 165 1.6 1.6 0.00 0.00 0.00 66 1048.0
20260508003645 11 165 1.6 3.2 0.00 0.00 0.00 65 1048.2
20260508003143 12 154 1.6 1.6 0.00 0.00 0.00 58 1048.1
20260508002639 13 107 1.6 1.6 0.00 0.00 0.00 56 1047.9
20260508002137 14 105 1.6 1.6 0.00 0.00 0.00 49 1047.8
20260508001638 15 49 1.6 1.6 0.00 0.00 0.00 48 1047.9
20260508001134 16 46 0.0 0.0 0.00 0.00 0.00 42 1047.7